カタログに戻る

HULIANWANG DIGUI-145

運用中通信LEO
NORAD 67443·PAYLOAD·🇨🇳 China

打ち上げ Jan 13, 2026 から Wenchang Space Launch Site

Loading…

次のパス (今後24時間)

TLE

最新Source: Space-Track

元期: Sep 14, 2026, 21:04 UTC

1 67443U 26007J   26257.87836837 -.00000093  00000-0  67677-4 0  9991
2 67443  50.0084 123.8645 0000413   9.3059 350.7821 13.29329462 32727

AllMySatでHULIANWANG DIGUI-145をリアルタイム追跡

Download on the App Store